CFG75T EDDN-EDDH

Flight info

Callsign CFG75T
Flight time 0h 52m
Altitude 30000
Route ERETO1G ERETO DCT LONLI M726 LASTO M852 LARET/N0470F320 M852 HLZ Z990 DIRBO/N0422F230 T902 RARUP RARUP3S
Aircraft A339/H-SADE1E2E3GHIJ3J5M1P2RWXY/LB2D1

Departure

Time 2026-04-24 13:42
Airport Nuremberg Airport (EDDN)

Arrival

Time 2026-04-24 14:34
Airport Hamburg Helmut Schmidt Airport (EDDH)
Time Latitude Longitude Altitude Speed Heading
2026-04-24 13:03 49.49532 11.07661 1029 ft 0 kts 188°
2026-04-24 13:09 49.49533 11.07661 1032 ft 0 kts 188°
2026-04-24 13:29 49.49534 11.07661 1032 ft 0 kts 188°
2026-04-24 13:30 49.49538 11.07662 1032 ft 1 kts 188°
2026-04-24 13:31 49.49545 11.07664 1029 ft 1 kts 188°
2026-04-24 13:31 49.49552 11.07665 1030 ft 1 kts 188°
2026-04-24 13:31 49.49560 11.07667 1032 ft 1 kts 188°
2026-04-24 13:31 49.49567 11.07669 1032 ft 1 kts 186°
2026-04-24 13:32 49.49575 11.07672 1032 ft 1 kts 174°
2026-04-24 13:32 49.49582 11.07672 1032 ft 1 kts 159°
2026-04-24 13:32 49.49591 11.07670 1030 ft 1 kts 133°
2026-04-24 13:32 49.49598 11.07663 1031 ft 0 kts 103°
2026-04-24 13:33 49.49600 11.07657 1031 ft 3 kts 88°
2026-04-24 13:33 49.49598 11.07627 1032 ft 3 kts 94°
2026-04-24 13:33 49.49598 11.07623 1032 ft 0 kts 95°
2026-04-24 13:36 49.49598 11.07624 1032 ft 1 kts 95°
2026-04-24 13:36 49.49598 11.07636 1031 ft 2 kts 95°
2026-04-24 13:36 49.49596 11.07661 1031 ft 3 kts 95°
2026-04-24 13:36 49.49593 11.07703 1030 ft 5 kts 97°
2026-04-24 13:37 49.49588 11.07764 1029 ft 7 kts 97°
2026-04-24 13:37 49.49581 11.07841 1032 ft 0 kts 100°
2026-04-24 13:37 49.49574 11.07848 1032 ft 4 kts 128°
2026-04-24 13:37 49.49556 11.07924 1031 ft 10 kts 97°
2026-04-24 13:38 49.49552 11.08011 1032 ft 7 kts 94°
2026-04-24 13:38 49.49551 11.08094 1033 ft 9 kts 93°
2026-04-24 13:38 49.49543 11.08206 1032 ft 15 kts 98°
2026-04-24 13:38 49.49544 11.08329 1036 ft 6 kts 57°
2026-04-24 13:39 49.49585 11.08364 1038 ft 11 kts 28°
2026-04-24 13:39 49.49606 11.08502 1041 ft 15 kts 96°
2026-04-24 13:39 49.49594 11.08667 1042 ft 16 kts 99°
2026-04-24 13:39 49.49576 11.08842 1044 ft 17 kts 99°
2026-04-24 13:40 49.49556 11.09030 1045 ft 18 kts 99°
2026-04-24 13:40 49.49537 11.09222 1049 ft 18 kts 98°
2026-04-24 13:40 49.49550 11.09402 1053 ft 16 kts 58°
2026-04-24 13:40 49.49617 11.09540 1057 ft 16 kts 52°
2026-04-24 13:41 49.49690 11.09558 1058 ft 3 kts 317°
2026-04-24 13:41 49.49702 11.09516 1058 ft 6 kts 288°
2026-04-24 13:41 49.49736 11.09172 1052 ft 78 kts 279°
2026-04-24 13:41 49.49859 11.07881 1043 ft 160 kts 277°
2026-04-24 13:42 49.50040 11.06135 1786 ft 172 kts 281°
2026-04-24 13:42 49.50283 11.04254 2618 ft 186 kts 282°
2026-04-24 13:42 49.50522 11.02232 3505 ft 199 kts 283°
2026-04-24 13:42 49.50835 11.00098 4356 ft 209 kts 284°
2026-04-24 13:43 49.51061 10.97835 5211 ft 218 kts 278°
2026-04-24 13:43 49.51400 10.95555 6031 ft 220 kts 297°
2026-04-24 13:43 49.52316 10.93685 6866 ft 222 kts 321°
2026-04-24 13:43 49.53660 10.92596 7671 ft 225 kts 344°
2026-04-24 13:44 49.55247 10.92417 8516 ft 228 kts
2026-04-24 13:44 49.56843 10.92563 9370 ft 231 kts
2026-04-24 13:44 49.58430 10.92655 10202 ft 232 kts
2026-04-24 13:44 49.60049 10.92711 10982 ft 233 kts 359°
2026-04-24 13:45 49.61675 10.92748 11788 ft 233 kts 359°
2026-04-24 13:45 49.63294 10.92790 12605 ft 232 kts
2026-04-24 13:45 49.64874 10.93257 13455 ft 231 kts 12°
2026-04-24 13:45 49.66422 10.93885 14218 ft 232 kts 12°
2026-04-24 13:46 49.68047 10.94541 14484 ft 253 kts 12°
2026-04-24 13:46 49.69849 10.95270 14693 ft 276 kts 13°
2026-04-24 13:46 49.71753 10.96045 14857 ft 298 kts 13°
2026-04-24 13:46 49.73829 10.96897 15042 ft 319 kts 13°
2026-04-24 13:47 49.76042 10.97807 15210 ft 338 kts 13°
2026-04-24 13:47 49.78373 10.98768 15480 ft 352 kts 13°
2026-04-24 13:47 49.80754 10.99754 16051 ft 356 kts 13°
2026-04-24 13:47 49.83161 11.00748 16643 ft 359 kts 13°
2026-04-24 13:48 49.85592 11.01753 17222 ft 363 kts 13°
2026-04-24 13:48 49.88039 11.02764 17831 ft 366 kts 13°
2026-04-24 13:48 49.90519 11.03790 18360 ft 372 kts 13°
2026-04-24 13:48 49.93039 11.04832 18808 ft 377 kts 13°
2026-04-24 13:49 49.95574 11.05882 19417 ft 377 kts 13°
2026-04-24 13:49 49.98123 11.06939 19954 ft 380 kts 13°
2026-04-24 13:49 50.00686 11.08003 20511 ft 383 kts 13°
2026-04-24 13:49 50.03249 11.09070 21062 ft 385 kts 13°
2026-04-24 13:50 50.05868 11.10160 21614 ft 388 kts 13°
2026-04-24 13:50 50.08486 11.11250 22181 ft 391 kts 13°
2026-04-24 13:50 50.11098 11.12338 22738 ft 394 kts 13°
2026-04-24 13:50 50.13748 11.13446 23323 ft 395 kts 12°
2026-04-24 13:51 50.16418 11.14562 23856 ft 398 kts 12°
2026-04-24 13:51 50.19110 11.15688 24298 ft 402 kts 12°
2026-04-24 13:51 50.21817 11.16821 24769 ft 404 kts 12°
2026-04-24 13:51 50.24545 11.17966 25222 ft 408 kts 12°
2026-04-24 13:52 50.27297 11.19123 25659 ft 411 kts 12°
2026-04-24 13:52 50.30068 11.20288 26108 ft 414 kts 12°
2026-04-24 13:52 50.32860 11.21434 26535 ft 416 kts 10°
2026-04-24 13:52 50.35718 11.22158 26972 ft 417 kts
2026-04-24 13:53 50.38618 11.22331 27394 ft 418 kts 356°
2026-04-24 13:53 50.41520 11.21989 27814 ft 420 kts 352°
2026-04-24 13:53 50.44440 11.21521 28227 ft 423 kts 352°
2026-04-24 13:53 50.47382 11.21078 28620 ft 426 kts 352°
2026-04-24 13:54 50.50345 11.20640 29033 ft 429 kts 352°
2026-04-24 13:54 50.53319 11.20199 29443 ft 431 kts 352°
2026-04-24 13:54 50.56336 11.19747 29719 ft 437 kts 352°
2026-04-24 13:54 50.59370 11.19288 30073 ft 439 kts 352°
2026-04-24 13:55 50.65550 11.18348 30152 ft 454 kts 352°
2026-04-24 13:55 50.71831 11.17393 30158 ft 453 kts 352°
2026-04-24 13:56 50.78109 11.16436 30168 ft 453 kts 352°
2026-04-24 13:56 50.84383 11.15474 30173 ft 452 kts 352°
2026-04-24 13:57 50.90652 11.14510 30157 ft 452 kts 352°
2026-04-24 13:57 50.96918 11.13544 30157 ft 452 kts 352°
2026-04-24 13:58 51.03184 11.12576 30157 ft 452 kts 352°
2026-04-24 13:58 51.09445 11.11574 30154 ft 450 kts 349°
2026-04-24 13:59 51.15491 11.09122 30156 ft 447 kts 337°
2026-04-24 13:59 51.21168 11.05144 30157 ft 446 kts 334°
2026-04-24 14:00 51.26841 11.01123 30150 ft 446 kts 334°
2026-04-24 14:00 51.32506 10.97084 30154 ft 447 kts 333°
2026-04-24 14:01 51.38384 10.93729 30154 ft 452 kts 344°
2026-04-24 14:01 51.44640 10.92402 30151 ft 455 kts 353°
2026-04-24 14:02 51.50957 10.91655 30148 ft 455 kts 352°
2026-04-24 14:02 51.57268 10.90883 30148 ft 453 kts 352°
2026-04-24 14:03 51.63575 10.90124 30145 ft 454 kts 352°
2026-04-24 14:03 51.69872 10.89334 30152 ft 453 kts 351°
2026-04-24 14:04 51.76133 10.88240 30151 ft 452 kts 350°
2026-04-24 14:04 51.82307 10.87141 30153 ft 452 kts 351°
2026-04-24 14:05 51.88582 10.86159 30154 ft 453 kts 352°
2026-04-24 14:05 51.94870 10.85311 30154 ft 453 kts 352°
2026-04-24 14:06 52.01155 10.84440 30157 ft 453 kts 352°
2026-04-24 14:06 52.07437 10.83553 30166 ft 457 kts 351°
2026-04-24 14:07 52.13778 10.82649 30170 ft 456 kts 351°
2026-04-24 14:07 52.20065 10.81777 30174 ft 456 kts 351°
2026-04-24 14:08 52.26436 10.80901 30178 ft 456 kts 351°
2026-04-24 14:08 52.32715 10.80032 30178 ft 455 kts 351°
2026-04-24 14:09 52.39065 10.79790 30177 ft 460 kts
2026-04-24 14:09 52.45447 10.80494 29867 ft 458 kts 359°
2026-04-24 14:10 52.47590 10.80712 29679 ft 456 kts 359°
2026-04-24 14:10 52.51770 10.81136 29330 ft 453 kts 359°
2026-04-24 14:10 52.58027 10.81782 29225 ft 451 kts 359°
2026-04-24 14:11 52.61161 10.82106 28884 ft 451 kts 359°
2026-04-24 14:11 52.64287 10.82433 28376 ft 447 kts 359°
2026-04-24 14:11 52.69390 10.82970 27485 ft 437 kts 359°
2026-04-24 14:12 52.72410 10.83288 26985 ft 433 kts 359°
2026-04-24 14:12 52.75413 10.83603 26472 ft 430 kts 360°
2026-04-24 14:12 52.78389 10.83916 25978 ft 427 kts 359°
2026-04-24 14:12 52.81348 10.84224 25491 ft 423 kts 359°
2026-04-24 14:13 52.84266 10.84184 25013 ft 417 kts 352°
2026-04-24 14:13 52.87129 10.83628 24539 ft 412 kts 349°
2026-04-24 14:13 52.89967 10.83028 24066 ft 409 kts 349°
2026-04-24 14:13 52.92780 10.82459 23602 ft 407 kts 349°
2026-04-24 14:14 52.95582 10.81898 23055 ft 404 kts 349°
2026-04-24 14:14 52.98356 10.81338 22517 ft 400 kts 349°
2026-04-24 14:14 53.03840 10.80223 21491 ft 393 kts 350°
2026-04-24 14:15 53.06546 10.79668 20985 ft 390 kts 350°
2026-04-24 14:15 53.09206 10.79123 20492 ft 387 kts 350°
2026-04-24 14:15 53.11871 10.78576 20003 ft 384 kts 350°
2026-04-24 14:15 53.14517 10.78031 19522 ft 382 kts 350°
2026-04-24 14:16 53.17148 10.77489 19040 ft 379 kts 350°
2026-04-24 14:16 53.19761 10.76949 18589 ft 378 kts 350°
2026-04-24 14:16 53.22366 10.76410 18064 ft 375 kts 351°
2026-04-24 14:17 53.27490 10.75350 17030 ft 367 kts 351°
2026-04-24 14:17 53.30014 10.74828 16522 ft 363 kts 351°
2026-04-24 14:17 53.34985 10.73795 15533 ft 357 kts 351°
2026-04-24 14:18 53.37441 10.73285 15041 ft 354 kts 351°
2026-04-24 14:18 53.39870 10.72779 14564 ft 351 kts 351°
2026-04-24 14:18 53.42286 10.72275 14089 ft 347 kts 352°
2026-04-24 14:18 53.44640 10.71784 13590 ft 345 kts 352°
2026-04-24 14:19 53.47008 10.71291 13068 ft 341 kts 352°
2026-04-24 14:19 53.49356 10.70802 12558 ft 338 kts 352°
2026-04-24 14:19 53.51673 10.70318 12049 ft 334 kts 352°
2026-04-24 14:19 53.53970 10.69838 11570 ft 330 kts 352°
2026-04-24 14:20 53.56229 10.69269 11060 ft 325 kts 345°
2026-04-24 14:20 53.58258 10.67642 10584 ft 324 kts 324°
2026-04-24 14:20 53.59783 10.64883 10112 ft 324 kts 305°
2026-04-24 14:20 53.60643 10.61405 9606 ft 321 kts 286°
2026-04-24 14:21 53.60751 10.57684 9089 ft 318 kts 267°
2026-04-24 14:21 53.60119 10.54146 8584 ft 315 kts 248°
2026-04-24 14:21 53.59161 10.51126 8255 ft 301 kts 246°
2026-04-24 14:21 53.58209 10.48117 8079 ft 281 kts 248°
2026-04-24 14:22 53.57541 10.45255 7871 ft 253 kts 266°
2026-04-24 14:22 53.57623 10.42458 7492 ft 233 kts 292°
2026-04-24 14:22 53.59451 10.38944 7222 ft 222 kts 326°
2026-04-24 14:23 53.60669 10.37371 7146 ft 220 kts 324°
2026-04-24 14:23 53.61860 10.35753 7075 ft 220 kts 323°
2026-04-24 14:23 53.63041 10.34108 7000 ft 220 kts 323°
2026-04-24 14:23 53.64215 10.32456 6927 ft 220 kts 322°
2026-04-24 14:24 53.65481 10.31056 6862 ft 217 kts 340°
2026-04-24 14:24 53.66971 10.30765 6804 ft 219 kts
2026-04-24 14:24 53.68389 10.31707 6669 ft 223 kts 31°
2026-04-24 14:24 53.69467 10.33616 6269 ft 228 kts 46°
2026-04-24 14:25 53.70449 10.35737 5738 ft 230 kts 47°
2026-04-24 14:25 53.71445 10.37850 5265 ft 229 kts 46°
2026-04-24 14:25 53.72448 10.39931 4880 ft 226 kts 46°
2026-04-24 14:25 53.73455 10.41992 4363 ft 228 kts 45°
2026-04-24 14:26 53.74467 10.44042 4038 ft 223 kts 45°
2026-04-24 14:26 53.75532 10.45784 3954 ft 201 kts 24°
2026-04-24 14:26 53.76885 10.46334 3961 ft 213 kts 354°
2026-04-24 14:26 53.78257 10.45540 3949 ft 210 kts 324°
2026-04-24 14:27 53.79206 10.43617 3964 ft 216 kts 303°
2026-04-24 14:27 53.79990 10.41472 3935 ft 217 kts 304°
2026-04-24 14:27 53.80776 10.39317 3943 ft 217 kts 298°
2026-04-24 14:27 53.80983 10.36788 3951 ft 225 kts 263°
2026-04-24 14:28 53.80359 10.34300 3941 ft 234 kts 242°
2026-04-24 14:28 53.79378 10.32094 3962 ft 234 kts 234°
2026-04-24 14:28 53.78360 10.30062 3967 ft 217 kts 234°
2026-04-24 14:28 53.77415 10.28120 3988 ft 216 kts 236°
2026-04-24 14:29 53.76467 10.26173 3986 ft 208 kts 234°
2026-04-24 14:29 53.75563 10.24340 3832 ft 201 kts 236°
2026-04-24 14:29 53.74671 10.22510 3552 ft 202 kts 237°
2026-04-24 14:29 53.73779 10.20684 3278 ft 201 kts 236°
2026-04-24 14:30 53.73188 10.19478 3098 ft 201 kts 236°
2026-04-24 14:30 53.71994 10.17037 2730 ft 201 kts 236°
2026-04-24 14:30 53.71106 10.15249 2460 ft 195 kts 236°
2026-04-24 14:30 53.70265 10.13513 2196 ft 186 kts 236°
2026-04-24 14:31 53.69465 10.11909 1965 ft 173 kts 237°
2026-04-24 14:31 53.68726 10.10383 1732 ft 162 kts 236°
2026-04-24 14:31 53.68040 10.09031 1528 ft 145 kts 236°
2026-04-24 14:31 53.67406 10.07812 1287 ft 134 kts 237°
2026-04-24 14:32 53.66803 10.06591 1111 ft 136 kts 238°
2026-04-24 14:32 53.66233 10.05379 959 ft 128 kts 238°
2026-04-24 14:32 53.65683 10.04230 739 ft 126 kts 239°
2026-04-24 14:32 53.65129 10.03062 619 ft 129 kts 237°
2026-04-24 14:33 53.64550 10.01948 408 ft 121 kts 238°
2026-04-24 14:33 53.64029 10.00863 229 ft 120 kts 240°
2026-04-24 14:33 53.63483 9.99771 85 ft 122 kts 241°
2026-04-24 14:33 53.63008 9.98746 47 ft 90 kts 229°
2026-04-24 14:34 53.62696 9.98125 48 ft 52 kts 231°
2026-04-24 14:34 53.62588 9.97906 47 ft 14 kts 230°
2026-04-24 14:34 53.62517 9.97794 47 ft 13 kts 198°
2026-04-24 14:34 53.62437 9.97840 49 ft 11 kts 128°
2026-04-24 14:35 53.62433 9.97955 49 ft 11 kts 81°
2026-04-24 14:35 53.62470 9.98275 52 ft 45 kts 82°
2026-04-24 14:35 53.62506 9.98594 49 ft 27 kts 80°
2026-04-24 14:35 53.62540 9.98909 49 ft 23 kts 79°
2026-04-24 14:36 53.62550 9.98988 49 ft 11 kts 79°
2026-04-24 14:36 53.62566 9.99129 48 ft 6 kts 79°
2026-04-24 14:36 53.62576 9.99217 53 ft 9 kts 79°
2026-04-24 14:36 53.62601 9.99426 49 ft 26 kts 79°
2026-04-24 14:37 53.62632 9.99695 53 ft 10 kts 79°
2026-04-24 14:37 53.62636 9.99735 53 ft 4 kts 79°
2026-04-24 14:37 53.62699 9.99873 50 ft 26 kts 26°
2026-04-24 14:37 53.62864 10.00027 53 ft 24 kts 38°
2026-04-24 14:38 53.62921 10.00104 47 ft 2 kts 43°
2026-04-24 14:38 53.62961 10.00150 48 ft 13 kts 35°
2026-04-24 14:38 53.62966 10.00227 50 ft 0 kts 123°
2026-04-24 14:38 53.62947 10.00275 52 ft 7 kts 122°
2026-04-24 14:39 53.62945 10.00280 54 ft 0 kts 122°